This is the latest recevied weather packets stored in our database for station/object KE1THD. If no packets are shown the sender has not sent any weather packets the latest 10 day(s).
| Time | Temp. | Humidity | Pressure | Rain* | Wind** | Luminosity | Snow |
|---|---|---|---|---|---|---|---|
| 1777408289 | 16.67° C | 52% | 1014.4 hPa | 0 mm | - | 574 W/m² | - |
| 1777407984 | 16.67° C | 53% | 1014.2 hPa | 0 mm | - | 614 W/m² | - |
| 1777407682 | 16.67° C | 53% | 1014.2 hPa | 0 mm | - | 647 W/m² | - |
| 1777407381 | 16.11° C | 58% | 1014.1 hPa | 0 mm | - | 671 W/m² | - |
| 1777407077 | 16.11° C | 55% | 1014.4 hPa | 0 mm | - | 662 W/m² | - |
| 1777406772 | 15.56° C | 56% | 1014.4 hPa | 0 mm | - | 664 W/m² | - |
| 1777406467 | 15.56° C | 56% | 1014.1 hPa | 0 mm | - | 722 W/m² | - |
| 1777406162 | 16.11° C | 55% | 1014.4 hPa | 0 mm | - | 416 W/m² | - |
| 1777405857 | 15.56° C | 56% | 1014.3 hPa | 0 mm | - | 339 W/m² | - |
| 1777405554 | 15.56° C | 56% | 1014.4 hPa | 0 mm | - | 522 W/m² | - |
| 1777405251 | 15.56° C | 55% | 1014.3 hPa | 0 mm | - | 178 W/m² | - |
| 1777404950 | 15.56° C | 56% | 1014.5 hPa | 0 mm | - | 734 W/m² | - |
| 1777404646 | 15.56° C | 55% | 1015 hPa | 0 mm | - | 703 W/m² | - |
| 1777404342 | 16.11° C | 56% | 1014.7 hPa | 0 mm | - | 680 W/m² | - |
| 1777404039 | 15.56° C | 56% | 1015 hPa | 0 mm | - | 690 W/m² | - |
| 1777403734 | 16.11° C | 56% | 1015 hPa | 0 mm | - | 673 W/m² | - |
| 1777403432 | 16.11° C | 57% | 1015.1 hPa | 0 mm | - | 745 W/m² | - |
| 1777403127 | 16.11° C | 57% | 1015.4 hPa | 0 mm | - | 813 W/m² | - |
| 1777402823 | 16.11° C | 56% | 1015.2 hPa | 0 mm | - | 731 W/m² | - |
| 1777402521 | 16.11° C | 56% | 1015.7 hPa | 0 mm | - | 788 W/m² | - |
| 1777402217 | 16.11° C | 55% | 1015.8 hPa | 0 mm | - | 555 W/m² | - |
| 1777401912 | 15.56° C | 55% | 1015.6 hPa | 0 mm | - | 717 W/m² | - |
| 1777401611 | 16.11° C | 56% | 1015.9 hPa | 0 mm | - | 567 W/m² | - |
| 1777401308 | 15.56° C | 59% | 1016 hPa | 0 mm | - | 744 W/m² | - |
| 1777401003 | 15.56° C | 59% | 1015.8 hPa | 0 mm | - | 534 W/m² | - |
* Rain latest hour (hover to see other rain measurements)
** Current wind speed in m/s (hover to see current wind gust speed)